TimeEDT,TemperatureF,Dew PointF,Humidity,Sea Level PressureIn,VisibilityMPH,Wind Direction,Wind SpeedMPH,Gust SpeedMPH,PrecipitationIn,Events,Conditions,WindDirDegrees,DateUTC
12:14 AM,77.9,71.6,81,30.24,10.0,SW,6.9,-,N/A,,Clear,220,2013-07-17 04:14:00
12:34 AM,77.5,71.6,82,30.24,10.0,SSW,8.1,-,N/A,,Clear,210,2013-07-17 04:34:00
12:54 AM,77.5,71.8,82,30.24,10.0,SSW,6.9,-,N/A,,Clear,210,2013-07-17 04:54:00
1:14 AM,77.5,72.0,83,30.24,10.0,SSW,6.9,-,N/A,,Clear,210,2013-07-17 05:14:00
1:34 AM,77.4,72.1,84,30.23,10.0,SSW,8.1,-,N/A,,Clear,210,2013-07-17 05:34:00
1:54 AM,77.4,72.1,84,30.23,10.0,SSW,5.8,-,N/A,,Clear,210,2013-07-17 05:54:00
2:15 AM,77.4,72.0,83,30.23,10.0,SW,6.9,-,N/A,,Clear,220,2013-07-17 06:15:00
2:34 AM,77.9,72.0,82,30.22,10.0,SW,8.1,-,N/A,,Clear,220,2013-07-17 06:34:00
2:54 AM,77.7,72.0,82,30.22,10.0,SW,6.9,-,N/A,,Clear,220,2013-07-17 06:54:00
3:15 AM,77.4,71.8,83,30.22,10.0,SW,6.9,-,N/A,,Scattered Clouds,220,2013-07-17 07:15:00
3:34 AM,77.4,72.0,83,30.22,10.0,SW,8.1,-,N/A,,Scattered Clouds,220,2013-07-17 07:34:00
3:54 AM,77.5,72.0,83,30.22,10.0,SW,8.1,-,N/A,,Clear,220,2013-07-17 07:54:00
4:15 AM,77.4,72.1,84,30.22,10.0,SW,8.1,-,N/A,,Clear,230,2013-07-17 08:15:00
4:34 AM,77.7,72.5,84,30.22,10.0,SW,9.2,-,N/A,,Clear,230,2013-07-17 08:34:00
4:54 AM,77.5,72.5,84,30.23,10.0,SW,9.2,-,N/A,,Clear,230,2013-07-17 08:54:00
5:14 AM,77.9,72.1,82,30.23,10.0,SW,9.2,-,N/A,,Clear,230,2013-07-17 09:14:00
5:34 AM,77.4,72.1,84,30.23,10.0,WSW,9.2,-,N/A,,Scattered Clouds,240,2013-07-17 09:34:00
5:54 AM,77.0,72.1,85,30.24,10.0,WSW,8.1,-,N/A,,Mostly Cloudy,250,2013-07-17 09:54:00
6:14 AM,77.5,72.3,84,30.24,10.0,WSW,9.2,-,N/A,,Mostly Cloudy,240,2013-07-17 10:14:00
6:34 AM,77.4,72.3,84,30.24,10.0,WSW,9.2,-,N/A,,Scattered Clouds,250,2013-07-17 10:34:00
6:54 AM,77.2,72.5,85,30.24,10.0,WSW,10.4,-,N/A,,Clear,250,2013-07-17 10:54:00
7:14 AM,77.2,72.5,85,30.24,10.0,WSW,9.2,-,N/A,,Clear,250,2013-07-17 11:14:00
7:35 AM,77.9,72.5,83,30.25,10.0,WSW,9.2,-,N/A,,Clear,240,2013-07-17 11:35:00
7:54 AM,78.6,72.5,81,30.25,10.0,WSW,8.1,-,N/A,,Clear,240,2013-07-17 11:54:00
8:14 AM,79.3,72.7,80,30.25,10.0,WSW,9.2,-,N/A,,Clear,250,2013-07-17 12:14:00
8:34 AM,79.9,72.5,78,30.25,10.0,WSW,10.4,-,N/A,,Clear,250,2013-07-17 12:34:00
8:54 AM,79.9,72.3,78,30.26,10.0,WSW,9.2,-,N/A,,Scattered Clouds,240,2013-07-17 12:54:00
9:14 AM,79.7,72.1,78,30.26,10.0,WSW,9.2,-,N/A,,Mostly Cloudy,250,2013-07-17 13:14:00
9:34 AM,81.5,72.7,74,30.26,10.0,WSW,10.4,-,N/A,,Scattered Clouds,250,2013-07-17 13:34:00
9:54 AM,82.2,72.7,73,30.26,10.0,WSW,8.1,16.1,N/A,,Scattered Clouds,250,2013-07-17 13:54:00
10:14 AM,82.9,72.7,71,30.26,10.0,WSW,12.7,-,N/A,,Scattered Clouds,250,2013-07-17 14:14:00
10:34 AM,83.8,72.3,68,30.26,10.0,West,10.4,-,N/A,,Clear,260,2013-07-17 14:34:00
10:54 AM,83.8,72.1,68,30.26,10.0,West,11.5,17.3,N/A,,Clear,260,2013-07-17 14:54:00
11:14 AM,84.6,72.1,66,30.26,10.0,WSW,10.4,-,N/A,,Clear,240,2013-07-17 15:14:00
11:34 AM,85.3,72.0,64,30.26,10.0,WSW,10.4,-,N/A,,Clear,240,2013-07-17 15:34:00
11:54 AM,85.3,71.8,64,30.26,10.0,WSW,9.2,-,N/A,,Clear,240,2013-07-17 15:54:00
12:14 PM,86.2,71.6,62,30.26,10.0,WSW,9.2,-,N/A,,Clear,250,2013-07-17 16:14:00
12:34 PM,86.2,71.4,61,30.25,10.0,WSW,11.5,-,N/A,,Clear,240,2013-07-17 16:34:00
12:54 PM,86.9,71.2,59,30.25,10.0,WSW,9.2,-,N/A,,Clear,250,2013-07-17 16:54:00
1:14 PM,88.2,70.9,56,30.25,10.0,WSW,8.1,-,N/A,,Clear,240,2013-07-17 17:14:00
1:34 PM,88.5,70.9,56,30.25,10.0,West,12.7,-,N/A,,Clear,270,2013-07-17 17:34:00
1:54 PM,88.9,71.4,56,30.24,10.0,WSW,10.4,16.1,N/A,,Clear,250,2013-07-17 17:54:00
2:14 PM,89.6,69.1,51,30.24,10.0,WSW,11.5,-,N/A,,Clear,250,2013-07-17 18:14:00
2:35 PM,89.8,68.4,49,30.23,10.0,SW,8.1,-,N/A,,Clear,230,2013-07-17 18:35:00
2:54 PM,90.5,70.7,52,30.22,10.0,West,11.5,-,N/A,,Clear,270,2013-07-17 18:54:00
3:14 PM,90.9,71.1,52,30.22,10.0,West,10.4,-,N/A,,Clear,280,2013-07-17 19:14:00
3:35 PM,90.9,70.3,51,30.21,10.0,West,11.5,16.1,N/A,,Clear,270,2013-07-17 19:35:00
3:54 PM,90.5,69.8,50,30.20,10.0,West,10.4,16.1,N/A,,Clear,260,2013-07-17 19:54:00
4:14 PM,89.8,70.3,53,30.19,10.0,West,13.8,-,N/A,,Clear,260,2013-07-17 20:14:00
4:34 PM,90.5,70.3,51,30.18,10.0,WSW,12.7,17.3,N/A,,Clear,250,2013-07-17 20:34:00
4:54 PM,89.6,69.8,52,30.17,10.0,WSW,9.2,16.1,N/A,,Clear,240,2013-07-17 20:54:00
5:14 PM,89.6,70.0,52,30.17,10.0,WSW,12.7,-,N/A,,Clear,240,2013-07-17 21:14:00
5:34 PM,89.2,70.2,53,30.18,10.0,WSW,11.5,17.3,N/A,,Clear,240,2013-07-17 21:34:00
5:54 PM,89.4,69.8,52,30.19,10.0,West,12.7,-,N/A,,Clear,270,2013-07-17 21:54:00
6:14 PM,87.3,70.2,57,30.19,10.0,West,10.4,-,N/A,,Clear,270,2013-07-17 22:14:00
6:34 PM,86.9,68.9,55,30.17,10.0,WSW,11.5,19.6,N/A,,Clear,240,2013-07-17 22:34:00
6:54 PM,86.5,69.1,56,30.17,10.0,WSW,13.8,-,N/A,,Clear,250,2013-07-17 22:54:00
7:15 PM,85.5,70.9,62,30.17,10.0,WSW,12.7,-,N/A,,Clear,240,2013-07-17 23:15:00
7:34 PM,83.5,72.9,70,30.18,10.0,WSW,15.0,20.7,N/A,,Clear,240,2013-07-17 23:34:00
7:54 PM,78.8,72.5,81,30.19,10.0,NW,9.2,-,N/A,,Mostly Cloudy,320,2013-07-17 23:54:00
8:15 PM,78.8,72.5,81,30.19,10.0,NNW,4.6,-,N/A,,Mostly Cloudy,330,2013-07-18 00:15:00
8:34 PM,78.4,71.4,79,30.19,10.0,North,5.8,-,N/A,,Scattered Clouds,350,2013-07-18 00:34:00
8:54 PM,77.0,68.0,74,30.18,10.0,North,4.6,-,N/A,,Scattered Clouds,10,2013-07-18 00:54:00
9:15 PM,75.7,68.0,77,30.17,10.0,North,5.8,-,N/A,,Clear,350,2013-07-18 01:15:00
9:34 PM,74.1,68.7,83,30.17,10.0,NNW,3.5,-,N/A,,Clear,340,2013-07-18 01:34:00
9:54 PM,72.7,68.7,87,30.16,10.0,Calm,Calm,-,N/A,,Clear,0,2013-07-18 01:54:00
10:14 PM,72.7,68.7,87,30.16,10.0,Calm,Calm,-,N/A,,Clear,0,2013-07-18 02:14:00
10:34 PM,72.5,68.0,86,30.16,10.0,SSW,3.5,-,N/A,,Clear,210,2013-07-18 02:34:00
10:54 PM,72.1,68.0,87,30.16,10.0,Calm,Calm,-,N/A,,Clear,0,2013-07-18 02:54:00
11:14 PM,73.4,68.0,83,30.16,10.0,SE,3.5,-,N/A,,Clear,130,2013-07-18 03:14:00
11:34 PM,72.5,68.2,86,30.16,10.0,Calm,Calm,-,N/A,,Scattered Clouds,0,2013-07-18 03:34:00
11:54 PM,71.8,68.2,88,30.16,10.0,Calm,Calm,-,N/A,,Scattered Clouds,0,2013-07-18 03:54:00